N822JH KLFK-KGLS

Flight info

Callsign N822JH
Flight time 0h 55m
Altitude 8000
Route KGLS
Aircraft PA24/L-SDGRY/S

Departure

Time 2026-04-26 01:41
Airport Angelina County Airport (KLFK)

Arrival

Time 2026-04-26 02:37
Airport Scholes International At Galveston Airport (KGLS)
Time Latitude Longitude Altitude Speed Heading
2026-04-26 01:18 31.23187 -94.75317 289 ft 0 kts 255°
2026-04-26 01:29 31.23187 -94.75318 289 ft 1 kts 256°
2026-04-26 01:29 31.23224 -94.75322 289 ft 12 kts 10°
2026-04-26 01:29 31.23290 -94.75325 289 ft 11 kts 43°
2026-04-26 01:30 31.23332 -94.75280 288 ft 8 kts 346°
2026-04-26 01:30 31.23376 -94.75300 288 ft 13 kts 341°
2026-04-26 01:30 31.23403 -94.75311 289 ft 4 kts 329°
2026-04-26 01:30 31.23414 -94.75306 288 ft 0 kts 161°
2026-04-26 01:38 31.23410 -94.75317 289 ft 6 kts 339°
2026-04-26 01:38 31.23441 -94.75326 288 ft 0 kts 346°
2026-04-26 01:39 31.23461 -94.75333 288 ft 10 kts 342°
2026-04-26 01:40 31.23528 -94.75310 287 ft 11 kts 46°
2026-04-26 01:40 31.23621 -94.75304 287 ft 10 kts 343°
2026-04-26 01:40 31.23675 -94.75326 287 ft 5 kts 291°
2026-04-26 01:40 31.23633 -94.75320 287 ft 17 kts 161°
2026-04-26 01:41 31.23353 -94.75198 300 ft 72 kts 156°
2026-04-26 01:41 31.22857 -94.75017 506 ft 75 kts 158°
2026-04-26 01:41 31.22360 -94.74797 791 ft 79 kts 155°
2026-04-26 01:41 31.21842 -94.74552 1093 ft 82 kts 157°
2026-04-26 01:42 31.21323 -94.74281 1363 ft 80 kts 156°
2026-04-26 01:42 31.20820 -94.74019 1596 ft 78 kts 160°
2026-04-26 01:42 31.20326 -94.73762 1823 ft 79 kts 160°
2026-04-26 01:42 31.19806 -94.73495 2008 ft 85 kts 161°
2026-04-26 01:43 31.19287 -94.73363 2326 ft 72 kts 174°
2026-04-26 01:43 31.18792 -94.73281 2548 ft 74 kts 171°
2026-04-26 01:43 31.18270 -94.73168 2761 ft 79 kts 170°
2026-04-26 01:43 31.17723 -94.73043 2974 ft 81 kts 174°
2026-04-26 01:44 31.17158 -94.72992 3193 ft 82 kts 178°
2026-04-26 01:44 31.16585 -94.72964 3406 ft 83 kts 180°
2026-04-26 01:44 31.16016 -94.72981 3630 ft 80 kts 182°
2026-04-26 01:44 31.15458 -94.73010 3845 ft 82 kts 181°
2026-04-26 01:45 31.14890 -94.73010 4050 ft 82 kts 181°
2026-04-26 01:45 31.14316 -94.73046 4251 ft 83 kts 184°
2026-04-26 01:45 31.13739 -94.73106 4462 ft 83 kts 185°
2026-04-26 01:45 31.13172 -94.73182 4651 ft 83 kts 187°
2026-04-26 01:46 31.12600 -94.73291 4839 ft 84 kts 189°
2026-04-26 01:46 31.12023 -94.73412 5025 ft 85 kts 188°
2026-04-26 01:46 31.11438 -94.73512 5205 ft 85 kts 186°
2026-04-26 01:46 31.10847 -94.73597 5386 ft 86 kts 187°
2026-04-26 01:47 31.10260 -94.73689 5575 ft 85 kts 187°
2026-04-26 01:47 31.09670 -94.73778 5739 ft 86 kts 187°
2026-04-26 01:47 31.09080 -94.73882 5914 ft 86 kts 188°
2026-04-26 01:47 31.08483 -94.74004 6072 ft 87 kts 189°
2026-04-26 01:48 31.07888 -94.74129 6239 ft 87 kts 189°
2026-04-26 01:48 31.07289 -94.74243 6406 ft 88 kts 188°
2026-04-26 01:48 31.06674 -94.74339 6575 ft 92 kts 186°
2026-04-26 01:48 31.06039 -94.74409 6775 ft 91 kts 185°
2026-04-26 01:49 31.05400 -94.74457 6943 ft 94 kts 184°
2026-04-26 01:49 31.04751 -94.74487 7134 ft 92 kts 183°
2026-04-26 01:49 31.04099 -94.74511 7299 ft 95 kts 183°
2026-04-26 01:49 31.03441 -94.74534 7527 ft 93 kts 183°
2026-04-26 01:50 31.02793 -94.74531 7726 ft 96 kts 180°
2026-04-26 01:50 31.02123 -94.74500 7953 ft 95 kts 180°
2026-04-26 01:50 31.01415 -94.74492 8010 ft 114 kts 185°
2026-04-26 01:50 31.00585 -94.74558 8016 ft 128 kts 188°
2026-04-26 01:51 30.99661 -94.74641 8029 ft 138 kts 186°
2026-04-26 01:51 30.98685 -94.74763 8059 ft 144 kts 190°
2026-04-26 01:51 30.97678 -94.74929 8063 ft 149 kts 188°
2026-04-26 01:51 30.96633 -94.75090 8030 ft 154 kts 189°
2026-04-26 01:52 30.95554 -94.75132 8008 ft 156 kts 182°
2026-04-26 01:52 30.94462 -94.75143 7983 ft 157 kts 185°
2026-04-26 01:52 30.93376 -94.75153 7987 ft 156 kts 184°
2026-04-26 01:52 30.92299 -94.75216 7993 ft 154 kts 187°
2026-04-26 01:53 30.91227 -94.75316 7994 ft 154 kts 186°
2026-04-26 01:53 30.90174 -94.75424 7992 ft 154 kts 188°
2026-04-26 01:53 30.89104 -94.75499 7994 ft 154 kts 188°
2026-04-26 01:53 30.88035 -94.75520 7997 ft 154 kts 180°
2026-04-26 01:54 30.86969 -94.75582 7998 ft 154 kts 188°
2026-04-26 01:54 30.85906 -94.75691 8000 ft 154 kts 188°
2026-04-26 01:54 30.84838 -94.75761 7999 ft 154 kts 184°
2026-04-26 01:54 30.83770 -94.75696 8001 ft 154 kts 175°
2026-04-26 01:55 30.82698 -94.75635 8002 ft 154 kts 182°
2026-04-26 01:55 30.81626 -94.75672 8002 ft 154 kts 187°
2026-04-26 01:55 30.80571 -94.75754 8003 ft 154 kts 184°
2026-04-26 01:55 30.79500 -94.75815 7999 ft 155 kts 187°
2026-04-26 01:56 30.78432 -94.75954 8008 ft 154 kts 190°
2026-04-26 01:56 30.77369 -94.76125 8009 ft 154 kts 193°
2026-04-26 01:56 30.76319 -94.76371 8006 ft 154 kts 193°
2026-04-26 01:56 30.75262 -94.76568 8006 ft 154 kts 188°
2026-04-26 01:57 30.74189 -94.76640 8004 ft 155 kts 185°
2026-04-26 01:57 30.73107 -94.76671 8002 ft 155 kts 186°
2026-04-26 01:57 30.72025 -94.76684 8005 ft 156 kts 183°
2026-04-26 01:57 30.70941 -94.76658 8003 ft 155 kts 178°
2026-04-26 01:58 30.69862 -94.76533 8009 ft 156 kts 177°
2026-04-26 01:58 30.68789 -94.76514 8007 ft 156 kts 187°
2026-04-26 01:58 30.67720 -94.76701 8014 ft 155 kts 189°
2026-04-26 01:58 30.66647 -94.76823 8011 ft 155 kts 189°
2026-04-26 01:59 30.65571 -94.76952 8013 ft 156 kts 189°
2026-04-26 01:59 30.64494 -94.77094 8011 ft 156 kts 186°
2026-04-26 01:59 30.63412 -94.77176 8011 ft 156 kts 191°
2026-04-26 01:59 30.62336 -94.77344 8011 ft 156 kts 188°
2026-04-26 02:00 30.61250 -94.77399 8006 ft 157 kts 183°
2026-04-26 02:00 30.60159 -94.77358 8008 ft 157 kts 181°
2026-04-26 02:00 30.59066 -94.77354 8007 ft 157 kts 183°
2026-04-26 02:00 30.57989 -94.77366 8016 ft 157 kts 184°
2026-04-26 02:01 30.56896 -94.77405 8014 ft 157 kts 188°
2026-04-26 02:01 30.55810 -94.77552 8015 ft 157 kts 187°
2026-04-26 02:01 30.54726 -94.77703 8012 ft 157 kts 192°
2026-04-26 02:01 30.53646 -94.77883 8010 ft 157 kts 188°
2026-04-26 02:02 30.52556 -94.77863 8014 ft 157 kts 180°
2026-04-26 02:02 30.51505 -94.77905 8008 ft 156 kts 183°
2026-04-26 02:02 30.50412 -94.77877 8016 ft 157 kts 180°
2026-04-26 02:02 30.49323 -94.77960 8018 ft 157 kts 190°
2026-04-26 02:03 30.48254 -94.78193 8019 ft 156 kts 192°
2026-04-26 02:03 30.47171 -94.78304 8024 ft 157 kts 188°
2026-04-26 02:03 30.46093 -94.78328 8016 ft 158 kts 183°
2026-04-26 02:03 30.44996 -94.78310 8019 ft 158 kts 181°
2026-04-26 02:04 30.43900 -94.78293 8019 ft 158 kts 182°
2026-04-26 02:04 30.42802 -94.78297 8021 ft 158 kts 184°
2026-04-26 02:04 30.41704 -94.78367 8017 ft 158 kts 189°
2026-04-26 02:04 30.40616 -94.78510 8026 ft 157 kts 192°
2026-04-26 02:05 30.39540 -94.78743 8020 ft 157 kts 193°
2026-04-26 02:05 30.38461 -94.78942 8018 ft 157 kts 191°
2026-04-26 02:05 30.37376 -94.79068 8015 ft 157 kts 184°
2026-04-26 02:05 30.36296 -94.79058 8018 ft 157 kts 183°
2026-04-26 02:06 30.35204 -94.79129 8020 ft 157 kts 191°
2026-04-26 02:06 30.34117 -94.79212 8019 ft 157 kts 184°
2026-04-26 02:06 30.33023 -94.79138 8023 ft 158 kts 178°
2026-04-26 02:06 30.31924 -94.79067 8024 ft 158 kts 179°
2026-04-26 02:07 30.30821 -94.79055 8021 ft 159 kts 186°
2026-04-26 02:07 30.29725 -94.79161 8023 ft 158 kts 189°
2026-04-26 02:07 30.28638 -94.79323 8027 ft 158 kts 194°
2026-04-26 02:07 30.27565 -94.79572 8026 ft 157 kts 194°
2026-04-26 02:08 30.26510 -94.79887 8023 ft 156 kts 198°
2026-04-26 02:08 30.25452 -94.80160 8020 ft 156 kts 196°
2026-04-26 02:08 30.24433 -94.80588 8016 ft 155 kts 206°
2026-04-26 02:08 30.23427 -94.80978 8018 ft 155 kts 195°
2026-04-26 02:09 30.22336 -94.81109 8019 ft 156 kts 186°
2026-04-26 02:09 30.21270 -94.81262 8018 ft 157 kts 194°
2026-04-26 02:09 30.20228 -94.81591 8022 ft 156 kts 202°
2026-04-26 02:09 30.19199 -94.81980 8027 ft 155 kts 202°
2026-04-26 02:10 30.18168 -94.82344 8022 ft 155 kts 200°
2026-04-26 02:10 30.17139 -94.82708 8022 ft 154 kts 195°
2026-04-26 02:10 30.16076 -94.82921 8019 ft 155 kts 190°
2026-04-26 02:10 30.14999 -94.83050 8028 ft 156 kts 185°
2026-04-26 02:11 30.13922 -94.83187 8038 ft 156 kts 195°
2026-04-26 02:11 30.12869 -94.83476 8042 ft 155 kts 198°
2026-04-26 02:11 30.11815 -94.83758 8044 ft 156 kts 197°
2026-04-26 02:11 30.10779 -94.84122 8044 ft 155 kts 200°
2026-04-26 02:12 30.09758 -94.84522 8043 ft 155 kts 203°
2026-04-26 02:12 30.08740 -94.84885 8038 ft 155 kts 196°
2026-04-26 02:12 30.07670 -94.85067 8038 ft 156 kts 191°
2026-04-26 02:12 30.06596 -94.85242 8042 ft 156 kts 192°
2026-04-26 02:13 30.05529 -94.85465 8039 ft 156 kts 195°
2026-04-26 02:13 30.04468 -94.85721 8043 ft 156 kts 194°
2026-04-26 02:13 30.03414 -94.86003 8045 ft 155 kts 201°
2026-04-26 02:13 30.02414 -94.86465 8042 ft 154 kts 202°
2026-04-26 02:14 30.01393 -94.86841 8040 ft 154 kts 198°
2026-04-26 02:14 30.00329 -94.87039 8040 ft 156 kts 191°
2026-04-26 02:14 29.99264 -94.87259 8038 ft 155 kts 198°
2026-04-26 02:14 29.98220 -94.87570 8039 ft 155 kts 198°
2026-04-26 02:15 29.97171 -94.87788 8041 ft 156 kts 195°
2026-04-26 02:15 29.96120 -94.88080 8040 ft 155 kts 192°
2026-04-26 02:15 29.95058 -94.88317 8044 ft 156 kts 196°
2026-04-26 02:15 29.94010 -94.88621 8049 ft 155 kts 198°
2026-04-26 02:16 29.92969 -94.88955 8044 ft 155 kts 198°
2026-04-26 02:16 29.91921 -94.89245 8046 ft 155 kts 194°
2026-04-26 02:16 29.90861 -94.89498 8039 ft 156 kts 194°
2026-04-26 02:16 29.89794 -94.89710 8045 ft 155 kts 193°
2026-04-26 02:17 29.88736 -94.89972 8041 ft 156 kts 193°
2026-04-26 02:17 29.87684 -94.90264 8041 ft 155 kts 197°
2026-04-26 02:17 29.86652 -94.90560 8037 ft 155 kts 196°
2026-04-26 02:17 29.85601 -94.90835 8034 ft 155 kts 192°
2026-04-26 02:18 29.84543 -94.91100 8034 ft 156 kts 195°
2026-04-26 02:18 29.84187 -94.91192 8036 ft 155 kts 194°
2026-04-26 02:18 29.83427 -94.91411 8031 ft 156 kts 197°
2026-04-26 02:18 29.82368 -94.91661 8036 ft 156 kts 193°
2026-04-26 02:19 29.81312 -94.91941 8034 ft 156 kts 197°
2026-04-26 02:19 29.80269 -94.92279 8038 ft 156 kts 199°
2026-04-26 02:19 29.79187 -94.92568 7709 ft 164 kts 194°
2026-04-26 02:19 29.78115 -94.92875 7556 ft 158 kts 199°
2026-04-26 02:20 29.77025 -94.93189 7160 ft 164 kts 193°
2026-04-26 02:20 29.75959 -94.93434 7056 ft 151 kts 193°
2026-04-26 02:20 29.74938 -94.93729 6808 ft 150 kts 197°
2026-04-26 02:20 29.73936 -94.93921 6561 ft 148 kts 190°
2026-04-26 02:21 29.72937 -94.94189 6279 ft 148 kts 195°
2026-04-26 02:21 29.71944 -94.94458 6026 ft 145 kts 191°
2026-04-26 02:21 29.70965 -94.94734 5758 ft 145 kts 195°
2026-04-26 02:21 29.69999 -94.94971 5635 ft 135 kts 192°
2026-04-26 02:22 29.69072 -94.95190 5402 ft 137 kts 192°
2026-04-26 02:22 29.68159 -94.95440 5248 ft 133 kts 196°
2026-04-26 02:22 29.67269 -94.95715 5066 ft 133 kts 197°
2026-04-26 02:22 29.66368 -94.95991 4876 ft 135 kts 191°
2026-04-26 02:23 29.65484 -94.96236 4746 ft 131 kts 193°
2026-04-26 02:23 29.64594 -94.96487 4598 ft 131 kts 194°
2026-04-26 02:23 29.63697 -94.96709 4457 ft 130 kts 190°
2026-04-26 02:23 29.62820 -94.96904 4314 ft 130 kts 191°
2026-04-26 02:24 29.61925 -94.97086 4171 ft 129 kts 191°
2026-04-26 02:24 29.61379 -94.97229 4044 ft 130 kts 195°
2026-04-26 02:24 29.60494 -94.97509 3939 ft 125 kts 194°
2026-04-26 02:24 29.59623 -94.97709 3710 ft 133 kts 191°
2026-04-26 02:25 29.58730 -94.97937 3593 ft 130 kts 190°
2026-04-26 02:25 29.57853 -94.98149 3446 ft 131 kts 191°
2026-04-26 02:25 29.56980 -94.98375 3308 ft 130 kts 192°
2026-04-26 02:25 29.56097 -94.98588 3139 ft 131 kts 191°
2026-04-26 02:26 29.55217 -94.98827 3054 ft 127 kts 193°
2026-04-26 02:26 29.54368 -94.99066 2974 ft 124 kts 193°
2026-04-26 02:26 29.53547 -94.99312 2982 ft 120 kts 193°
2026-04-26 02:26 29.52733 -94.99544 2994 ft 120 kts 192°
2026-04-26 02:27 29.51923 -94.99764 2995 ft 119 kts 191°
2026-04-26 02:27 29.51110 -94.99970 2996 ft 121 kts 191°
2026-04-26 02:27 29.50301 -95.00176 3000 ft 120 kts 191°
2026-04-26 02:27 29.49493 -95.00382 2998 ft 119 kts 191°
2026-04-26 02:28 29.48679 -95.00583 2999 ft 120 kts 191°
2026-04-26 02:28 29.47860 -95.00790 2999 ft 120 kts 191°
2026-04-26 02:28 29.47043 -95.00997 2999 ft 121 kts 191°
2026-04-26 02:28 29.46227 -95.01201 3003 ft 120 kts 192°
2026-04-26 02:29 29.45418 -95.01418 3001 ft 119 kts 192°
2026-04-26 02:29 29.44618 -95.01641 3001 ft 119 kts 192°
2026-04-26 02:29 29.43811 -95.01862 2999 ft 119 kts 192°
2026-04-26 02:29 29.43022 -95.02058 3020 ft 117 kts 186°
2026-04-26 02:30 29.42198 -95.02014 3016 ft 118 kts 168°
2026-04-26 02:30 29.41523 -95.01502 2941 ft 124 kts 127°
2026-04-26 02:30 29.41155 -95.00581 2883 ft 128 kts 118°
2026-04-26 02:30 29.40789 -94.99665 2831 ft 128 kts 122°
2026-04-26 02:31 29.40331 -94.98792 2782 ft 127 kts 133°
2026-04-26 02:31 29.39709 -94.98114 2797 ft 121 kts 145°
2026-04-26 02:31 29.39033 -94.97558 2787 ft 119 kts 150°
2026-04-26 02:31 29.38334 -94.97059 2752 ft 120 kts 152°
2026-04-26 02:32 29.37671 -94.96542 2521 ft 112 kts 146°
2026-04-26 02:32 29.37078 -94.96018 2374 ft 103 kts 146°
2026-04-26 02:32 29.36535 -94.95535 2287 ft 95 kts 146°
2026-04-26 02:32 29.36001 -94.95055 2201 ft 99 kts 146°
2026-04-26 02:33 29.35469 -94.94585 2157 ft 97 kts 147°
2026-04-26 02:33 29.34926 -94.94135 2113 ft 97 kts 148°
2026-04-26 02:33 29.34400 -94.93636 1995 ft 98 kts 142°
2026-04-26 02:33 29.33898 -94.93119 1843 ft 96 kts 142°
2026-04-26 02:34 29.33399 -94.92624 1696 ft 94 kts 143°
2026-04-26 02:34 29.32912 -94.92147 1530 ft 90 kts 145°
2026-04-26 02:34 29.32414 -94.91700 1366 ft 92 kts 148°
2026-04-26 02:34 29.31888 -94.91280 1199 ft 94 kts 144°
2026-04-26 02:35 29.31409 -94.90779 1059 ft 93 kts 141°
2026-04-26 02:35 29.30933 -94.90289 929 ft 92 kts 143°
2026-04-26 02:35 29.30424 -94.89837 853 ft 93 kts 146°
2026-04-26 02:35 29.29907 -94.89350 761 ft 99 kts 141°
2026-04-26 02:36 29.29367 -94.88879 674 ft 98 kts 145°
2026-04-26 02:36 29.28844 -94.88378 516 ft 98 kts 139°
2026-04-26 02:36 29.28350 -94.87871 406 ft 91 kts 144°
2026-04-26 02:36 29.27908 -94.87460 276 ft 81 kts 141°
2026-04-26 02:37 29.27481 -94.87056 128 ft 79 kts 143°
2026-04-26 02:37 29.27084 -94.86681 18 ft 63 kts 142°
2026-04-26 02:37 29.26837 -94.86446 12 ft 32 kts 140°
2026-04-26 02:37 29.26712 -94.86325 10 ft 22 kts 141°
2026-04-26 02:38 29.26553 -94.86178 6 ft 28 kts 141°
2026-04-26 02:38 29.26455 -94.86084 8 ft 15 kts 139°
2026-04-26 02:38 29.26360 -94.85992 7 ft 14 kts 140°
2026-04-26 02:38 29.26367 -94.85916 9 ft 9 kts 55°
2026-04-26 02:39 29.26375 -94.85813 12 ft 9 kts 93°
2026-04-26 02:39 29.26386 -94.85782 12 ft 11 kts 30°
2026-04-26 02:39 29.26455 -94.85751 11 ft 16 kts
2026-04-26 02:39 29.26602 -94.85743 11 ft 18 kts
2026-04-26 02:40 29.26678 -94.85687 13 ft 9 kts 63°
2026-04-26 02:40 29.26695 -94.85645 13 ft 3 kts 66°
2026-04-26 02:40 29.26718 -94.85606 12 ft 5 kts 39°
2026-04-26 02:40 29.26761 -94.85593 11 ft 0 kts